Regional Weather Roundup
Issued by NWS Burlington, VT

Home | Current Version | Previous Version | Text Only | Print | Product List | Glossary On
Versions: 1 2 3 4 5 6 7 8 9 10 11 12 13
000
ASUS41 KBTV 262030
RWRBTV
VERMONT REGIONAL WEATHER ROUNDUP
NATIONAL WEATHER SERVICE BURLINGTON VT
400 PM EDT TUE SEP 26 2017

NOTE: "FAIR" INDICATES FEW OR NO CLOUDS BELOW 12,000 FEET WITH NO
SIGNIFICANT WEATHER AND/OR OBSTRUCTIONS TO VISIBILITY.

* THESE REPORTS ARE NOT UNDER NWS QUALITY CONTROL AND/OR DO NOT
  REPORT WEATHER SUCH AS PRECIPITATION AND FOG.

VTZ001>019-262100-
_____VERMONT_____


CITY           SKY/WX    TMP DP  RH WIND       PRES   REMARKS
BURLINGTON     MOSUNNY   90  70  51 CALM      29.95F HX  95
MONTPELIER     SUNNY     85  62  46 NW3       30.03F
MORRISVILLE    MOSUNNY   87  63  44 CALM      29.99F
ST. JOHNSBURY*   N/A     89  61  38 MISG      29.95F
LYNDONVILLE*   FAIR      85  62  46 CALM      30.01F
MIDDLEBURY*    FAIR      85  68  56 CALM      29.97S
RUTLAND*       MOSUNNY   87  65  47 CALM      29.98F
SPRINGFIELD    SUNNY     87  64  46 VRB5      29.97F
HIGHGATE*      FAIR      86  68  54 CALM      29.95F
NEWPORT*       FAIR      85  64  49 CALM      29.99F
BENNINGTON     MOSUNNY   86  68  54 W3        29.99F
SUTTON*          N/A      0 N/A N/A MISG        N/A
ISLAND POND*     N/A     86 N/A N/A NW6         N/A
GALLUP MILLS*    N/A     81 N/A N/A MISG        N/A
UNION VILLAGE*   N/A     82 N/A N/A MISG        N/A
MT. MANSFIELD*   N/A     75 N/A N/A W3          N/A

_____LAKE CHAMPLAIN_____


CITY           SKY/WX    TMP DP  RH WIND       PRES   REMARKS
BURTON ISLAND*   N/A     81  72  74 SE1         N/A
COLCHESTER RF*   N/A     82  66  57 S5          N/A
DIAMOND ISL*     N/A     84  68  58 SW6         N/A

$$

NYZ007-026>031-035-052-083-087-262100-
_____NORTHERN NEW YORK_____


CITY           SKY/WX    TMP DP  RH WIND       PRES   REMARKS
PLATTSBURGH    MOSUNNY   84  67  56 SE7       29.95F
SARANAC LAKE   SUNNY     85  57  38 S6        30.01F
MASSENA        PTSUNNY   85  70  60 SW5       29.95F
OGDENSBURG*    FAIR      85  67  55 CALM      29.95
POTSDAM*       SUNNY     84  70  61 NW3       29.95F
STARK FALLS*     N/A     84 N/A N/A SW1         N/A
WATERTOWN      SUNNY     84  70  62 W8        29.95F HAZE
FT DRUM        SUNNY     88  68  51 NW5       29.96F HX  91
ALBANY         PTSUNNY   90  65  43 CALM      29.97F HX  92
GLENS FALLS    PTSUNNY   87  68  52 S6        29.95F HX  90

$$
NHZ002-005-011-262100-
_____NEW HAMPSHIRE_____


CITY           SKY/WX    TMP DP  RH WIND       PRES   REMARKS
LEBANON        SUNNY     89  62  40 CALM      29.96F
KEENE          SUNNY     90  66  45 S5        29.98F HX  92
MT WASHINGTON  PTSUNNY   63  55  77 W9          N/A
PLYMOUTH       FAIR      87  65  47 CALM      29.96F
WHITEFIELD     SUNNY     89  62  40 W3        29.99F

$$

_____REGIONAL QUEBEC LOCATIONS_____


CITY           SKY/WX    TMP DP  RH WIND       PRES   REMARKS
MONTREAL       CLOUDY    84  68  58 SW6       29.93F
QUEBEC CITY    MOSUNNY   84  68  58 SW12      29.92F
SHERBROOKE     SUNNY     84  68  58 W5        29.97S

_____REGIONAL ONTARIO LOCATIONS_____


CITY           SKY/WX    TMP DP  RH WIND       PRES   REMARKS
OTTAWA         PTSUNNY   86  68  54 S8        29.94F

______KEY______
VSB  - VISIBILITY IN MILES
WCI  - WIND CHILL INDEX
HX   - HEAT INDEX
$$
NNNN




USA.gov is the U.S. government's official web portal to all federal, state and local government web resources and services.